Content
SEND FEEDBACK

Daily
Averages
Monthly
Summary
French Polynesia

PAPEETE, FRENCH POLYNESIA


Home > Oceania > French Polynesia
Elevation: 2 meters     Latitude: 17 33S     Longitude: 149 36W

WEATHER
 
SELECT A DAY
Number of Records: 217,333;   Date Range: 6/30/96 - 12/17/14
 
SHARE

PRINT THIS DATA

[ ← Previous Day ]
WEATHER ALMANAC - 1 APRIL, 2013
[ Next Day → ]
[ °F ]   °C
Weather ElementAverageHighLow
Temperature28.7 °C31.1 °C (11:00 am)26 °C (12:30 am)
Dewpoint23.2 °C25 °C (12:30 pm)21.7 °C (5:00 am)
Humidity71 %79 % (7:30 pm)58 % (8:00 am)
Barometer1012.5 hPa1014.2 hPa (10:30 pm)1011.2 hPa (3:00 am)
Wind Speed12.1 km/h20.4 km/h (11:30 am)
Weather ElementAverage
Visibility12.9 km
Wind DirectionENE (61.3 °)

Weather ElementTotal
Precipitation---
Cooling Degree Days10.2 (Base 18.3)
Growing Degree Days18.6 (Base 10)
Averaged from 54 records on 1 April, 2013
WEATHER CONDITIONS BREAKOUT
WIND DIRECTION BREAKOUT
WEATHER BY HOUR - 1 APRIL, 2013
[ °F ]   °C
Local TimeTemperatureDewpointHumidityBarometerVisibilityWind DirectionWind SpeedGust SpeedPrecipitationEventsConditions
12:30 AM26 °C22 °C78 %1013.2 hPa10 kmEast (100°)5.6 km/hMostly Cloudy
1:00 AM26 °C22 °C78 %1013.2 hPa10 kmEast (100°)5.6 km/hMostly Cloudy
1:30 AM26 °C22 °C78 %1012.2 hPa10 kmEast (100°)5.6 km/hMostly Cloudy
2:00 AM26.1 °C22.2 °C73 %1012.5 hPa19.3 kmESE (110°)10.8 km/hScattered Clouds
2:00 AM26 °C22 °C78 %1012.2 hPa10 kmESE (110°)5.6 km/hMostly Cloudy
2:30 AM26 °C22 °C78 %1012.2 hPa10 kmEast (100°)7.4 km/hMostly Cloudy
3:00 AM26 °C22 °C78 %1011.2 hPa10 kmEast (90°)7.4 km/hMostly Cloudy
3:30 AM26 °C22 °C78 %1011.2 hPa10 kmEast (90°)9.3 km/h
4:00 AM26 °C22 °C78 %1011.2 hPa10 kmENE (70°)7.4 km/h
4:30 AM27 °C22 °C74 %1011.2 hPa10 kmENE (70°)9.3 km/h
5:00 AM26.7 °C21.7 °C67 %1012.2 hPa59.5 kmENE (60°)9.3 km/hClear
5:00 AM27 °C22 °C74 %1012.2 hPa10 kmENE (60°)9.3 km/h
5:30 AM27 °C22 °C74 %1012.2 hPa10 kmENE (60°)9.3 km/h
6:00 AM27 °C22 °C74 %1012.2 hPa10 kmENE (70°)7.4 km/hMostly Cloudy
6:30 AM26 °C22 °C78 %1012.2 hPa10 kmEast (80°)7.4 km/hMostly Cloudy
7:30 AM28 °C22 °C70 %1013.2 hPa10 kmENE (60°)9.3 km/hMostly Cloudy
8:00 AM28.9 °C22.2 °C58 %1013.9 hPa25.7 kmENE (60°)18 km/hPartly Cloudy
8:00 AM29 °C22 °C66 %1013.2 hPa10 kmENE (60°)9.3 km/hMostly Cloudy
8:30 AM30 °C23 °C66 %1013.2 hPa10 kmNE (50°)13 km/hMostly Cloudy
9:00 AM30 °C24 °C70 %1013.2 hPa10 kmNE (40°)13 km/hMostly Cloudy
9:30 AM31 °C23 °C62 %1013.2 hPa10 kmNE (40°)16.7 km/hMostly Cloudy
10:00 AM31 °C23 °C62 %1013.2 hPa10 kmNE (40°)18.5 km/hMostly Cloudy
10:30 AM31 °C24 °C66 %1013.2 hPa10 kmNE (40°)18.5 km/hMostly Cloudy
11:00 AM31.1 °C24.4 °C59 %1012.9 hPa30.6 kmNNE (30°)18.5 km/hScattered Clouds
11:00 AM31 °C24 °C66 %1012.2 hPa10 kmNNE (30°)18.5 km/hMostly Cloudy
11:30 AM31 °C24 °C66 %1012.2 hPa10 kmNNE (30°)20.4 km/hPartly Cloudy
12:00 PM31 °C24 °C66 %1012.2 hPa10 kmNNE (30°)16.7 km/hPartly Cloudy
12:30 PM31 °C25 °C70 %1012.2 hPa10 kmNNE (30°)18.5 km/hMostly Cloudy
1:00 PM31 °C24 °C66 %1011.2 hPa10 kmNNE (30°)16.7 km/hMostly Cloudy
1:43 PM31 °C24 °C66 %1011.2 hPa10 kmNNE (30°)16.7 km/hMostly Cloudy
2:00 PM31.1 °C24.4 °C59 %1011.2 hPa30.6 kmNE (40°)18.5 km/hScattered Clouds
2:00 PM31 °C24 °C66 %1011.2 hPa10 kmNE (40°)18.5 km/hMostly Cloudy
2:30 PM31 °C24 °C66 %1011.2 hPa10 kmNE (40°)18.5 km/hMostly Cloudy
3:00 PM31 °C24 °C66 %1011.2 hPa10 kmNE (40°)16.7 km/hMostly Cloudy
3:30 PM31 °C24 °C66 %1011.2 hPa10 kmNE (40°)16.7 km/hMostly Cloudy
4:00 PM30 °C24 °C70 %1011.2 hPa10 kmNE (40°)18.5 km/hMostly Cloudy
4:30 PM30 °C24 °C70 %1011.2 hPa10 kmNE (40°)16.7 km/hMostly Cloudy
5:00 PM29.4 °C23.9 °C66 %1011.9 hPa30.6 kmNE (40°)16.7 km/hScattered Clouds
5:00 PM30 °C24 °C70 %1011.2 hPa10 kmNE (40°)16.7 km/hMostly Cloudy
5:30 PM29 °C24 °C74 %1012.2 hPa10 kmNE (40°)13 km/hMostly Cloudy
6:00 PM29 °C24 °C74 %1012.2 hPa10 kmNE (50°)13 km/hMostly Cloudy
6:30 PM29 °C24 °C74 %1012.2 hPa10 kmNE (50°)11.1 km/hMostly Cloudy
7:00 PM29 °C24 °C74 %1013.2 hPa10 kmEast (90°)7.4 km/hMostly Cloudy
7:30 PM28 °C24 °C79 %1013.2 hPa10 kmEast (90°)7.4 km/hMostly Cloudy
8:00 PM27.8 °C23.3 °C72 %1013.2 hPa19.3 kmEast (90°)5.6 km/hScattered Clouds
8:00 PM28 °C24 °C79 %1013.2 hPa10 kmEast (90°)5.6 km/hMostly Cloudy
8:30 PM28 °C23 °C74 %1013.2 hPa10 kmEast (80°)7.4 km/hMostly Cloudy
9:00 PM28 °C23 °C74 %1013.2 hPa10 kmENE (70°)9.3 km/hMostly Cloudy
9:30 PM28 °C23 °C74 %1013.2 hPa10 kmENE (60°)9.3 km/hMostly Cloudy
10:00 PM28 °C23 °C74 %1013.2 hPa10 kmENE (70°)9.3 km/hMostly Cloudy
10:30 PM28 °C23 °C74 %1014.2 hPa10 kmENE (70°)7.4 km/hMostly Cloudy
11:00 PM27.8 °C22.8 °C68 %1013.9 hPa19.3 kmENE (70°)7.4 km/hScattered Clouds
11:00 PM28 °C23 °C74 %1013.2 hPa10 kmENE (70°)7.4 km/hScattered Clouds
11:30 PM27 °C23 °C79 %1013.2 hPa10 kmEast (90°)9.3 km/hScattered Clouds
Hourly data recorded from NTAA, located 0 kilometers away from Papeete, French Polynesia







STORIES FROM OUR PARTNERS